Weather History for Abbeville, LA

Change the Weather History Date:

Thursday, January 24, 2013

  Actual Average (KARA) Record (KARA)
Temperature  
Mean Temperature 61 °F 53 °F  
Max Temperature 74 °F 63 °F 80 °F (2002)
Min Temperature 48 °F 43 °F 16 °F (1963)
Degree Days  
Heating Degree Days 4 12  
Month to date heating degree days 309  
Since 1 July heating degree days 856  
Cooling Degree Days 0 0  
Month to date cooling degree days 9  
Year to date cooling degree days 9  
Growing Degree Days 11 (Base 50)    
Moisture  
Dew Point 59 °F    
Average Humidity 89    
Maximum Humidity 100    
Minimum Humidity 65    
Precipitation  
Precipitation 0.00 in 0.17 in 1.80 in (1984)
Month to date precipitation 4.00  
Year to date precipitation 4.00  
Sea Level Pressure  
Sea Level Pressure 30.28 in    
Wind  
Wind Speed 5 mph (South)    
Max Wind Speed 12 mph    
Max Gust Speed 16 mph    
Visibility 9 miles    
Events Fog    
T = Trace of Precipitation, MM = Missing Value Source: NWS Daily Summary

Daily Weather History Graph

Daily Weather History Graph

Search for Another Location

Airport:

Trip Planner

Search our weather history database for the weather conditions in past years. The results will help you decide how hot, cold, wet, or windy it might be!

Date:

Astronomy

Jan. 24, 2013 Rise Set
Actual Time 7:02 AM CST 5:38 PM CST
Civil Twilight 6:36 AM CST 6:04 PM CST
Nautical Twilight 6:08 AM CST 6:33 PM CST
Astronomical Twilight 5:39 AM CST 7:01 PM CST
Moon 3:43 PM CST (1/24) 4:57 AM CST (1/24)
Length of Visible Light 11h 27m
Length of Day
10h 36m
Waxing Gibbous, 94% of the Moon is Illuminated
Jan 24
Waxing Gibbous
Jan 26
Full
Feb 3
Last Quarter
Feb 10
New
Feb 17
First Quarter

Hourly Weather History & Observations

Time (CST) Temp. Dew Point Humidity Pressure Visibility Wind Dir Wind Speed Gust Speed Precip Events Conditions
12:15 AM 55.2 °F 55.2 °F 100% 30.29 in 10.0 mi South 5.8 mph - N/A   Clear
12:35 AM 56.1 °F 56.1 °F 100% 30.29 in 10.0 mi SSE 4.6 mph - N/A   Clear
12:55 AM 55.4 °F 55.4 °F 100% 30.29 in 10.0 mi SSE 5.8 mph - N/A   Clear
1:15 AM 55.6 °F 55.6 °F 100% 30.29 in 10.0 mi South 3.5 mph - N/A   Clear
1:35 AM 55.6 °F 55.6 °F 100% 30.29 in 10.0 mi South 3.5 mph - N/A   Clear
1:55 AM 56.3 °F 56.3 °F 100% 30.29 in 10.0 mi SSE 3.5 mph - N/A   Clear
2:15 AM 55.9 °F 55.9 °F 100% 30.28 in 10.0 mi SSE 3.5 mph - N/A   Clear
2:35 AM 56.3 °F 56.3 °F 100% 30.28 in 10.0 mi South 3.5 mph - N/A   Clear
2:55 AM 55.6 °F 55.6 °F 100% 30.28 in 7.0 mi Calm Calm - N/A   Clear
3:15 AM 55.4 °F 55.4 °F 100% 30.27 in 1.5 mi South 3.5 mph - N/A   Mist
3:35 AM 54.9 °F 54.9 °F 100% 30.27 in 7.0 mi Calm Calm - N/A   Clear
3:55 AM 55.4 °F 55.4 °F 100% 30.27 in 2.0 mi Calm Calm - N/A   Clear
4:15 AM 55.2 °F 55.2 °F 100% 30.27 in 2.5 mi SSE 3.5 mph - N/A   Clear
4:55 AM 51.1 °F 51.1 °F 100% 30.28 in 0.5 mi Calm Calm - N/A Fog Fog
5:15 AM 51.3 °F 51.3 °F 100% 30.29 in 3.0 mi Calm Calm - N/A   Clear
5:35 AM 49.8 °F 49.8 °F 100% 30.29 in 0.8 mi Calm Calm - N/A   Mist
5:55 AM 48.7 °F 48.7 °F 100% 30.30 in 0.5 mi Calm Calm - N/A Fog Fog
6:15 AM 50.5 °F 50.5 °F 100% 30.30 in 4.0 mi Calm Calm - N/A   Scattered Clouds
6:35 AM 49.6 °F 49.6 °F 100% 30.31 in 3.0 mi Calm Calm - N/A   Mostly Cloudy
6:55 AM 50.5 °F 50.5 °F 100% 30.31 in 7.0 mi Calm Calm - N/A   Overcast
7:15 AM 52.7 °F 52.7 °F 100% 30.32 in 5.0 mi Calm Calm - N/A   Overcast
7:35 AM 54.5 °F 54.5 °F 100% 30.32 in 4.0 mi Calm Calm - N/A   Overcast
7:55 AM 55.9 °F 55.9 °F 100% 30.32 in 4.0 mi Calm Calm - N/A   Overcast
8:15 AM 57.7 °F 57.7 °F 100% 30.32 in 7.0 mi Calm Calm - N/A   Overcast
8:35 AM 60.1 °F 60.1 °F 100% 30.32 in 10.0 mi South 3.5 mph - N/A   Overcast
8:55 AM 60.6 °F 60.6 °F 100% 30.33 in 10.0 mi South 5.8 mph - N/A   Overcast
9:15 AM 61.7 °F 61.7 °F 100% 30.34 in 10.0 mi SSE 3.5 mph - N/A   Overcast
9:35 AM 63.5 °F 63.3 °F 99% 30.34 in 10.0 mi South 5.8 mph - N/A   Overcast
9:55 AM 66.2 °F 63.3 °F 90% 30.34 in 10.0 mi South 6.9 mph - N/A   Overcast
10:15 AM 68.0 °F 63.7 °F 86% 30.34 in 10.0 mi South 8.1 mph - N/A   Overcast
10:35 AM 70.7 °F 62.6 °F 75% 30.34 in 10.0 mi South 8.1 mph - N/A   Scattered Clouds
10:55 AM 71.6 °F 61.9 °F 71% 30.33 in 10.0 mi South 6.9 mph - N/A   Clear
11:15 AM 73.2 °F 61.9 °F 68% 30.33 in 10.0 mi SSW 10.4 mph - N/A   Scattered Clouds
11:35 AM 73.4 °F 61.2 °F 65% 30.32 in 10.0 mi SW 6.9 mph - N/A   Overcast
11:55 AM 73.0 °F 61.3 °F 67% 30.30 in 10.0 mi SW 9.2 mph - N/A   Overcast
12:15 PM 73.4 °F 61.7 °F 67% 30.29 in 10.0 mi SSW 9.2 mph - N/A   Overcast
12:35 PM 73.0 °F 61.0 °F 66% 30.29 in 10.0 mi WSW 6.9 mph - N/A   Overcast
12:55 PM 74.3 °F 61.9 °F 65% 30.28 in 10.0 mi SW 9.2 mph - N/A   Overcast
1:15 PM 73.4 °F 61.5 °F 66% 30.27 in 10.0 mi WSW 10.4 mph - N/A   Overcast
1:35 PM 73.4 °F 61.5 °F 66% 30.26 in 10.0 mi WSW 11.5 mph - N/A   Overcast
1:55 PM 73.8 °F 61.5 °F 65% 30.26 in 10.0 mi SW 9.2 mph 16.1 mph N/A   Overcast
2:15 PM 74.1 °F 61.5 °F 65% 30.24 in 10.0 mi WSW 8.1 mph - N/A   Overcast
2:35 PM 73.2 °F 61.5 °F 67% 30.24 in 10.0 mi SW 10.4 mph - N/A   Mostly Cloudy
2:55 PM 74.3 °F 61.7 °F 65% 30.24 in 10.0 mi SW 11.5 mph - N/A   Mostly Cloudy
3:15 PM 73.8 °F 61.7 °F 66% 30.23 in 10.0 mi SW 9.2 mph - N/A   Overcast
3:35 PM 73.9 °F 61.5 °F 65% 30.23 in 10.0 mi SW 6.9 mph - N/A   Mostly Cloudy
3:55 PM 73.0 °F 61.2 °F 66% 30.23 in 10.0 mi SW 10.4 mph - N/A   Scattered Clouds
4:15 PM 72.5 °F 61.0 °F 67% 30.24 in 10.0 mi SW 9.2 mph - N/A   Scattered Clouds
4:35 PM 71.6 °F 60.8 °F 69% 30.23 in 10.0 mi South 8.1 mph - N/A   Scattered Clouds
4:55 PM 69.6 °F 61.2 °F 74% 30.23 in 10.0 mi South 8.1 mph - N/A   Mostly Cloudy
5:15 PM 68.4 °F 61.0 °F 77% 30.23 in 10.0 mi SSE 6.9 mph - N/A   Mostly Cloudy
5:35 PM 66.7 °F 61.0 °F 82% 30.24 in 10.0 mi South 8.1 mph - N/A   Scattered Clouds
5:55 PM 66.4 °F 61.7 °F 85% 30.24 in 10.0 mi South 9.2 mph - N/A   Overcast
6:15 PM 66.2 °F 61.7 °F 85% 30.25 in 10.0 mi South 6.9 mph - N/A   Overcast
6:35 PM 65.5 °F 61.5 °F 87% 30.25 in 10.0 mi South 5.8 mph - N/A   Overcast
6:55 PM 63.9 °F 61.0 °F 90% 30.26 in 10.0 mi SSE 6.9 mph - N/A   Mostly Cloudy
7:15 PM 62.8 °F 61.0 °F 94% 30.26 in 10.0 mi SSE 6.9 mph - N/A   Scattered Clouds
7:35 PM 61.7 °F 61.2 °F 98% 30.26 in 10.0 mi SSE 5.8 mph - N/A   Clear
7:55 PM 60.8 °F 60.8 °F 100% 30.26 in 10.0 mi SSE 6.9 mph - N/A   Clear
8:15 PM 60.8 °F 60.8 °F 100% 30.26 in 10.0 mi SSE 6.9 mph - N/A   Clear
8:35 PM 60.4 °F 60.4 °F 100% 30.26 in 10.0 mi SSE 5.8 mph - N/A   Clear
8:55 PM 60.3 °F 60.3 °F 100% 30.26 in 10.0 mi SSE 5.8 mph - N/A   Clear
9:15 PM 60.1 °F 60.1 °F 100% 30.25 in 10.0 mi SSE 6.9 mph - N/A   Clear
9:35 PM 60.1 °F 60.1 °F 100% 30.25 in 10.0 mi SSE 5.8 mph - N/A   Clear
9:55 PM 59.9 °F 59.9 °F 100% 30.25 in 10.0 mi SSE 6.9 mph - N/A   Clear
10:15 PM 59.4 °F 59.4 °F 100% 30.25 in 10.0 mi SSE 5.8 mph - N/A   Clear
10:35 PM 59.0 °F 59.0 °F 100% 30.25 in 10.0 mi SSE 6.9 mph - N/A   Clear
10:55 PM 59.2 °F 59.2 °F 100% 30.25 in 10.0 mi SSE 4.6 mph - N/A   Clear
11:15 PM 59.9 °F 59.9 °F 100% 30.24 in 10.0 mi SSE 5.8 mph - N/A   Clear
11:35 PM 59.0 °F 59.0 °F 100% 30.24 in 10.0 mi SSE 6.9 mph - N/A   Clear
11:55 PM 59.5 °F 59.5 °F 100% 30.23 in 10.0 mi SSE 6.9 mph - N/A   Clear